Location: Kawakawa
(35.3830°S, 174.0670°E)
Time: 23:18:03
(UTC+13:00)

Cosmos 540 Rocket - Pass Details

Date: 24 January 2019
Orbit: 741 x 753 km, 74.1° (Epoch: 15 February)

Event Time Altitude Azimuth Distance (km) Brightness Sun altitude
Rises 22:10:17 0° 188° (S) 3,237 7.5 -16.9°
Reaches altitude 10° 22:12:54 10° 178° (S) 2,303 6.5 -17.3°
Maximum altitude 22:17:37 34° 114° (ESE) 1,240 4.3 -18.0°
Enters shadow 22:19:08 28° 80° (E) 1,384 4.4 -18.2°
